This is the latest recevied weather packets stored in our database for station/object N3LF. If no packets are shown the sender has not sent any weather packets the latest 10 day(s).
| Time | Temp. | Humidity | Pressure | Rain* | Wind** | Luminosity | Snow |
|---|---|---|---|---|---|---|---|
| 1788013545 | 25.56° C | 81% | 1023 hPa | 0 mm | - | 387 W/m² | - |
| 1788013245 | 25° C | 82% | 1023.1 hPa | 0 mm | - | 372 W/m² | - |
| 1788012944 | 25° C | 80% | 1023 hPa | 0 mm | - | 359 W/m² | - |
| 1788012644 | 23.89° C | 84% | 1023 hPa | 0 mm | - | 347 W/m² | - |
| 1788012339 | 23.89° C | 84% | 1023.1 hPa | 0 mm | - | 331 W/m² | - |
| 1788012034 | 25° C | 79% | 1022.8 hPa | 0 mm | - | 317 W/m² | - |
| 1788011732 | 23.89° C | 83% | 1023 hPa | 0 mm | - | 304 W/m² | - |
| 1788011428 | 23.33° C | 85% | 1022.9 hPa | 0 mm | - | 290 W/m² | - |
| 1788011127 | 22.78° C | 87% | 1022.9 hPa | 0 mm | - | 275 W/m² | - |
| 1788010822 | 22.78° C | 87% | 1023.2 hPa | 0 mm | - | 262 W/m² | - |
| 1788010521 | 22.78° C | 88% | 1022.9 hPa | 0 mm | - | 243 W/m² | - |
| 1788010216 | 22.78° C | 88% | 1023 hPa | 0 mm | - | 244 W/m² | - |
| 1788009915 | 21.67° C | 90% | 1023.1 hPa | 0 mm | - | 232 W/m² | - |
| 1788009620 | 21.67° C | 89% | 1023 hPa | 0 mm | - | 220 W/m² | - |
| 1788009308 | 22.22° C | 90% | 1022.8 hPa | 0 mm | - | 208 W/m² | - |
| 1788009003 | 21.67° C | 90% | 1023 hPa | 0 mm | - | 193 W/m² | - |
| 1788008699 | 21.67° C | 90% | 1022.8 hPa | 0 mm | - | 179 W/m² | - |
| 1788008397 | 21.11° C | 93% | 1023 hPa | 0 mm | - | 157 W/m² | - |
| 1788008109 | 20.56° C | 94% | 1023.1 hPa | 0 mm | - | 140 W/m² | - |
| 1788007794 | 20.56° C | 96% | 1022.9 hPa | 0 mm | - | 116 W/m² | - |
| 1788007488 | 20° C | 99% | 1022.8 hPa | 0 mm | - | 94 W/m² | - |
| 1788007188 | 19.44° C | 99% | 1022.7 hPa | 0 mm | - | 78 W/m² | - |
| 1788006882 | 18.89° C | 99% | 1022.7 hPa | 0 mm | - | 69 W/m² | - |
| 1788006582 | 19.44° C | 99% | 1022.6 hPa | 0 mm | - | 62 W/m² | - |
| 1788006277 | 19.44° C | 99% | 1022.6 hPa | 0 mm | - | 55 W/m² | - |
* Rain latest hour (hover to see other rain measurements)
** Current wind speed in m/s (hover to see current wind gust speed)